Home   Weather   Zielona Góra   Past weeks

Flag for Poland Past Weather in Zielona Góra, Poland — Yesterday and Last 2 Weeks

Now
59 °F

Overcast.


Feels Like: 58 °F
Forecast: 48 / 71 °F
Wind: 5 mph from West

Location: Zielona Gora

Current Time: May 25, 2017 at 12:28:15 pm

Latest Report: May 25, 2017 at 11:00 am


Visibility: 22 mi

Pressure: 30.14 "Hg

Humidity: 66%

Dew Point: 47 °F

Location of Zielona GóraLocation

Past Weather in Zielona Góra — Graph

°F

Zielona Góra Temperature Yesterday

Maximum temperature yesterday: 57 °F (at 2:00 am)
Minimum temperature yesterday: 49 °F (at 8:00 am)
Average temperature yesterday: 55 °F

High & Low Weather Summary for the Past Weeks

 TemperatureHumidityPressure
High80 °F (May 19, 4:00 pm)100% (May 15, 5:00 am)30.44 "Hg (May 15, 5:00 am)
Low41 °F (May 11, 5:00 am)33% (May 22, 3:00 pm)29.65 "Hg (May 12, 6:00 pm)
Average60 °F64%30.03 "Hg
* Reported May 10 11:00 am — May 25 11:00 am, Zielona Góra. Weather by CustomWeather, © 2017

Note: Actual official high and low records may vary slightly from our data, if they occured in-between our weather recording intervals... More about our weather records

Advertising

Zielona Góra Weather History for the Previous 24 Hours

Scroll right to see more
 ConditionsComfort  
Time TempWeatherWind HumidityBarometerVisibility
11:00 am
Thu, May 25
59 °FOvercast.5 mph66%30.14 "Hg22 mi
10:00 am59 °FPartly sunny.6 mph65%30.14 "Hg22 mi
9:00 am57 °FPartly sunny.3 mph74%30.14 "Hg19 mi
8:00 am53 °FPassing clouds.3 mph83%30.14 "Hg19 mi
7:00 am51 °FPassing clouds.3 mph86%30.14 "Hg22 mi
6:00 am49 °FScattered clouds.3 mph88%30.14 "Hg22 mi
5:00 am49 °FScattered clouds.3 mph86%30.12 "Hg22 mi
4:00 am50 °FPassing clouds.5 mph87%30.11 "Hg22 mi
3:00 am50 °FClear.3 mph84%30.11 "Hg22 mi
2:00 am51 °FPassing clouds.3 mph85%30.12 "Hg19 mi
1:00 am51 °FPassing clouds.3 mph83%30.12 "Hg22 mi
12:00 am53 °FPassing clouds.3 mph79%30.11 "Hg22 mi
11:00 pm
Wed, May 24
54 °FOvercast.3 mph76%30.12 "Hg25 mi
10:00 pm55 °FOvercast.3 mph73%30.11 "Hg25 mi
9:00 pm55 °FOvercast.3 mph72%30.10 "Hg25 mi
8:00 pm56 °FPartly sunny.5 mph67%30.08 "Hg25 mi
7:00 pm57 °FOvercast.6 mph65%30.07 "Hg19 mi
6:00 pm57 °FPartly sunny.7 mph62%30.07 "Hg22 mi
5:00 pm57 °FOvercast.6 mph62%30.07 "Hg22 mi
4:00 pm57 °FOvercast.6 mph62%30.06 "Hg25 mi
3:00 pm57 °FOvercast.6 mph63%30.06 "Hg19 mi
2:00 pm57 °FOvercast.6 mph61%30.05 "Hg22 mi
1:00 pm55 °FOvercast.6 mph64%30.05 "Hg22 mi
12:00 pm56 °FOvercast.6 mph61%30.05 "Hg19 mi
Weather by CustomWeather, © 2017

See weather overviewHow to use our weather pages